Location: Harwich
(41.7160°N, 69.9939°W)
Time: 12:00:04
(UTC+01:00)

Transit 4A - All Passes

Search period start: 31 January 2023 00:00
Search period end: 10 February 2023 00:00
Orbit: 871 x 973 km, 66.8° (Epoch: 31 January)

Date Brightness Start Highest point End Pass type
(mag) Time Alt. Az. Time Alt. Az. Time Alt. Az.
31 Jan - 01:02:31 10° WSW 01:07:59 41° NW 01:13:28 10° NNE visible
31 Jan - 08:18:09 10° NNW 08:23:45 40° NE 08:29:27 10° ESE night (unlit)
31 Jan - 10:04:38 10° NW 10:10:01 35° WSW 10:15:29 10° S visible
31 Jan - 23:25:15 10° S 23:30:50 50° ESE 23:36:26 10° NE visible
01 Feb - 01:12:24 10° WSW 01:17:24 29° NW 01:22:27 10° NNE visible
01 Feb - 06:42:40 10° N 06:45:27 13° NE 06:48:16 10° ENE night (unlit)
01 Feb - 08:27:13 10° NNW 08:33:06 58° NE 08:39:07 10° SE night (unlit)
01 Feb - 10:14:23 10° NW 10:19:01 24° WSW 10:23:44 10° SSW visible
01 Feb - 23:34:10 10° SSW 23:39:58 75° ESE 23:45:47 10° NNE visible
02 Feb - 01:22:32 10° W 01:26:55 21° NW 01:31:19 10° N visible
02 Feb - 06:51:11 10° N 06:55:08 18° NE 06:59:07 10° E night (unlit)
02 Feb - 08:36:21 10° NNW 08:42:22 83° ENE 08:48:30 10° SSE night (unlit)
02 Feb - 10:24:36 10° WNW 10:27:58 15° WSW 10:31:21 10° SW night (unlit)
02 Feb - 22:00:08 10° SE 22:03:33 16° ESE 22:06:59 10° ENE daylight
02 Feb - 23:43:21 10° SW 23:49:10 76° WNW 23:55:01 10° NNE visible
03 Feb - 01:33:02 10° WNW 01:36:31 16° NW 01:40:01 10° N visible
03 Feb - 06:59:57 10° N 07:04:42 24° NE 07:09:31 10° E night (unlit)
03 Feb - 08:45:37 10° NW 08:51:33 69° WSW 08:57:38 10° SSE night (unlit)
03 Feb - 22:07:52 10° SSE 22:12:30 25° ESE 22:17:07 10° NE daylight
03 Feb - 23:52:47 10° SW 23:58:27 52° NW 00:04:08 10° NNE visible
04 Feb - 01:44:05 10° NW 01:46:13 12° NNW 01:48:22 10° N visible
04 Feb - 07:08:52 10° NNW 07:14:11 33° NE 07:19:37 10° ESE night (unlit)
04 Feb - 08:54:59 10° NW 09:00:40 46° WSW 09:06:29 10° S night (unlit)
04 Feb - 22:16:12 10° S 22:21:30 38° ESE 22:26:48 10° NE daylight
05 Feb - 00:02:29 10° WSW 00:07:48 36° NW 00:13:10 10° NNE visible
05 Feb - 05:34:01 10° NNE 05:35:40 11° NNE 05:37:19 10° NE night (unlit)
05 Feb - 07:17:51 10° NNW 07:23:35 46° NE 07:29:26 10° SE night (unlit)
05 Feb - 09:04:33 10° NW 09:09:44 31° WSW 09:15:01 10° SSW night (unlit)
05 Feb - 22:24:53 10° SSW 22:30:34 57° ESE 22:36:16 10° NE daylight
06 Feb - 00:12:27 10° WSW 00:17:15 26° NW 00:22:07 10° N visible
06 Feb - 05:42:09 10° N 05:45:24 15° NE 05:48:41 10° ENE night (unlit)
06 Feb - 07:26:57 10° NNW 07:32:54 66° ENE 07:39:00 10° SE night (unlit)
06 Feb - 09:14:24 10° WNW 09:18:42 21° WSW 09:23:05 10° SSW night (unlit)
06 Feb - 20:52:26 10° ESE 20:54:20 12° ESE 20:56:14 10° E daylight
06 Feb - 22:33:54 10° SSW 22:39:43 85° ESE 22:45:34 10° NNE daylight
07 Feb - 00:22:42 10° W 00:26:48 19° NW 00:30:56 10° N visible
07 Feb - 05:50:46 10° N 05:55:02 20° NE 05:59:21 10° E night (unlit)
07 Feb - 07:36:07 10° NNW 07:42:09 87° WSW 07:48:17 10° SSE night (unlit)
07 Feb - 09:24:58 10° WNW 09:27:38 13° WSW 09:30:19 10° SW night (unlit)
07 Feb - 20:59:19 10° SSE 21:03:13 19° ESE 21:07:07 10° ENE daylight
07 Feb - 22:43:10 10° SW 22:48:56 67° WNW 22:54:46 10° NNE daylight
08 Feb - 00:33:21 10° WNW 00:36:26 14° NW 00:39:34 10° N visible
08 Feb - 05:59:36 10° N 06:04:35 27° NE 06:09:39 10° ESE night (unlit)
08 Feb - 07:45:24 10° NW 07:51:18 60° WSW 07:57:20 10° SSE night (unlit)
08 Feb - 21:07:17 10° SSE 21:12:11 29° ESE 21:17:04 10° NE daylight
08 Feb - 22:52:41 10° SW 22:58:15 46° NW 23:03:51 10° NNE daylight
09 Feb - 00:44:45 10° NW 00:46:10 11° NNW 00:47:37 10° NNW visible
09 Feb - 06:08:32 10° NNW 06:14:02 36° NE 06:19:38 10° ESE night (unlit)
09 Feb - 07:54:50 10° NW 08:00:24 40° WSW 08:06:05 10° S night (unlit)
09 Feb - 21:15:45 10° S 21:21:12 43° ESE 21:26:41 10° NE daylight
09 Feb - 23:02:28 10° WSW 23:07:38 32° NW 23:12:51 10° NNE daylight
